Location: Bakhuizen
(52.8696°N, 5.4575°E)
Time: 08:36:18
(UTC+00:00)

Cosmos 1707 Rocket - Pass Details

Date: 11 May 2021
Orbit: 605 x 631 km, 82.5° (Epoch: 15 June)

Event Time Altitude Azimuth Distance (km) Brightness Sun altitude
Exits shadow 22:32:59 27° 208° (SSW) 1,194 4.6 -17.8°
Maximum altitude 22:35:16 65° 283° (WNW) 683 3.8 -17.9°
Drops below altitude 10° 22:39:42 10° 6° (N) 2,005 7.3 -18.0°
Sets 22:41:58 0° 10° (N) 2,921 8.3 -18.1°
